Location: Bailleul
(50.3375°N, 2.8513°E)
Time: 13:09:54
(UTC+00:00)

Cosmos 2016 Rocket - Pass Details

Date: 23 October 2021
Orbit: 946 x 1001 km, 83.0° (Epoch: 30 November)

Event Time Altitude Azimuth Distance (km) Brightness Sun altitude
Exits shadow 20:44:24 29° 346° (NNW) 1,682 5.5 -38.3°
Drops below altitude 10° 20:47:29 10° 2° (N) 2,694 6.6 -38.7°
Sets 20:50:04 0° 7° (N) 3,639 7.3 -39.1°
